This is the latest recevied weather packets stored in our database for station/object K5FEP. If no packets are shown the sender has not sent any weather packets the latest 10 day(s).
| Time | Temp. | Humidity | Pressure | Rain* | Wind** | Luminosity | Snow |
|---|---|---|---|---|---|---|---|
| 1777824165 | 13.33° C | 34% | 1018.8 hPa | 0 mm | - | 948 W/m² | - |
| 1777823861 | 13.33° C | 31% | 1019 hPa | 0 mm | - | 939 W/m² | - |
| 1777823559 | 13.33° C | 32% | 1018.9 hPa | 0 mm | - | 933 W/m² | - |
| 1777823256 | 13.33° C | 32% | 1019.1 hPa | 0 mm | - | 925 W/m² | - |
| 1777822953 | 13.33° C | 33% | 1019 hPa | 0 mm | - | 918 W/m² | - |
| 1777822651 | 13.89° C | 32% | 1019 hPa | 0 mm | - | 910 W/m² | - |
| 1777822349 | 13.89° C | 35% | 1019 hPa | 0 mm | - | 902 W/m² | - |
| 1777822046 | 13.89° C | 33% | 1019 hPa | 0 mm | - | 890 W/m² | - |
| 1777821744 | 13.33° C | 34% | 1019.3 hPa | 0 mm | - | 880 W/m² | - |
| 1777821441 | 12.78° C | 32% | 1019.2 hPa | 0 mm | - | 868 W/m² | - |
| 1777821138 | 13.33° C | 33% | 1019.1 hPa | 0 mm | - | 857 W/m² | - |
| 1777820835 | 13.33° C | 33% | 1019.2 hPa | 0 mm | - | 846 W/m² | - |
| 1777820531 | 13.33° C | 32% | 1019.3 hPa | 0 mm | - | 833 W/m² | - |
| 1777820228 | 12.78° C | 33% | 1019.3 hPa | 0 mm | - | 820 W/m² | - |
| 1777819925 | 13.33° C | 33% | 1019.1 hPa | 0 mm | - | 807 W/m² | - |
| 1777819623 | 12.78° C | 33% | 1019 hPa | 0 mm | - | 790 W/m² | - |
| 1777819320 | 12.22° C | 34% | 1019.1 hPa | 0 mm | - | 777 W/m² | - |
| 1777819016 | 12.22° C | 33% | 1019.1 hPa | 0 mm | - | 762 W/m² | - |
| 1777818714 | 12.78° C | 34% | 1019 hPa | 0 mm | - | 747 W/m² | - |
| 1777818410 | 12.78° C | 33% | 1019.1 hPa | 0 mm | - | 732 W/m² | - |
| 1777818107 | 12.78° C | 35% | 1019.1 hPa | 0 mm | - | 716 W/m² | - |
| 1777817804 | 12.78° C | 32% | 1019.1 hPa | 0 mm | - | 697 W/m² | - |
| 1777817502 | 12.22° C | 37% | 1019.1 hPa | 0 mm | - | 679 W/m² | - |
| 1777817197 | 11.67° C | 38% | 1019 hPa | 0 mm | - | 664 W/m² | - |
| 1777816896 | 12.22° C | 36% | 1018.8 hPa | 0 mm | - | 644 W/m² | - |
* Rain latest hour (hover to see other rain measurements)
** Current wind speed in m/s (hover to see current wind gust speed)